Location: Beaurecueil
(43.5122°N, 5.5450°E)
Time: 14:44:17
(UTC+00:00)

YAOGAN 1 - Pass Details

Date: 18 September 2020
Orbit: 618 x 620 km, 97.9° (Epoch: 30 October)

Event Time Altitude Azimuth Distance (km) Brightness Sun altitude
Rises 18:20:39 0° 169° (S) 2,883 5.8 -7.8°
Reaches altitude 10° 18:22:49 10° 170° (S) 1,982 5.0 -8.2°
Maximum altitude 18:27:08 78° 258° (WSW) 640 2.8 -9.0°
Drops below altitude 10° 18:31:29 10° 344° (NNW) 1,998 5.5 -9.7°
Sets 18:33:42 0° 346° (NNW) 2,909 6.4 -10.1°
